Regional Weather Roundup
Issued by NWS Green Bay, WI

Home | Current Version | Previous Version | Text Only | Print | Product List | Glossary On
Versions: 1 2 3 4 5 6 7 8 9 10 11 12 13 14 15 16 17 18 19 20 21 22 23 24 25 26 27 28 29 30 31 32 33 34 35 36 37 38 39 40 41 42 43 44 45 46 47 48 49 50
000
ASUS43 KGRB 311810
RWRGRB

NORTH-CENTRAL AND NORTHEAST WISCONSIN REGIONAL WEATHER ROUNDUP
NATIONAL WEATHER SERVICE GREEN BAY WI
1200 PM CST SAT JAN 31 2015

WIZ005-009-010>012-018-019-311900-
NORTH CENTRAL WISCONSIN

CITY           SKY/WX    TMP DP  RH WIND       PRES   REMARKS
IRONWOOD       CLOUDY    19  16  86 N7        30.18R
MANITOWISH WTR LGT SNOW  20  16  83 N8        30.14R
ARBOR VITAE    LGT SNOW  22  17  81 N12G17    30.14R
EAGLE RIVER    CLOUDY    22  16  76 NW12      30.12S
LAND O LAKES   LGT SNOW  22  17  79 N12G17    30.13S
RHINELANDER    CLOUDY    22  16  78 NW8       30.13S
PHILLIPS       CLOUDY    22  16  76 N6        30.15S
ANTIGO         CLOUDY    23  18  80 N7        30.12F
TOMAHAWK       CLOUDY    23  17  77 CALM      30.15S
MERRILL        CLOUDY    25  19  75 N6        30.14F
$$

WIZ013-073-311900-
NORTHEAST WISCONSIN

CITY           SKY/WX    TMP DP  RH WIND       PRES   REMARKS
IRON MOUNTAIN  CLOUDY    25  17  72 NW14      30.12S
MARINETTE      CLOUDY    27  16  63 N7        30.16F
OCONTO         CLOUDY    27  17  65 CALM      30.17S
$$

WIZ017-030-035>037-045-311900-
CENTRAL WISCONSIN

CITY           SKY/WX    TMP DP  RH WIND       PRES   REMARKS
MEDFORD        CLOUDY    25  18  76 N8        30.14F
WAUSAU         CLOUDY    26  18  71 N6        30.14F
MOSINEE        CLOUDY    25  19  80 N7        30.16S
MARSHFIELD     CLOUDY    26  19  74 N8        30.15F
WISC RAPIDS    CLOUDY    26  18  71 N6        30.19S
STEVENS POINT  CLOUDY    24  16  73 NW5       30.17S
WAUPACA        CLOUDY    30  19  63 NW5       30.18S
SHAWANO        CLOUDY    29  18  63 NW5       30.17S
CLINTONVILLE   CLOUDY    28  18  64 N7        30.17F
$$

WIZ038-039-048-051-311900-
FOX VALLEY

CITY           SKY/WX    TMP DP  RH WIND       PRES   REMARKS
NWS GREEN BAY  CLOUDY    27  18  69 NW6       30.17F
APPLETON       CLOUDY    27  18  69 NW7       30.17S
OSHKOSH        CLOUDY    29  19  66 N7        30.17S
FOND DU LAC    CLOUDY    29  18  63 N5        30.17F
$$

WIZ022-050-052-311900-
EAST CENTRAL WISCONSIN

CITY           SKY/WX    TMP DP  RH WIND       PRES   REMARKS
STURGEON BAY   CLOUDY    25  14  63 NW7       30.18F
MANITOWOC      CLOUDY    28  20  71 N9        30.17F
SHEBOYGAN      CLOUDY    30  19  63 NW10      30.16F
$$

LMZ563-521-522-541>543-311900-
LAKESHORE

STATION/POSITION TIME  TEMP    WIND        PRES    VSBY  WAVE
                       AIR SEA DIR/SP/G                  HT/PER
                 (UTC) (F)     (DEG/KT/KT) (MB)    (MI)  (FT/S)
SHEBOYGAN LKSHOR 1800   29     300/  6/  9 1022.7F
KEWAUNEE LKSHORE 1800   26     300/  8/ 10 1021.0R
NORTHPORT PIER   1800   26     320/  9/ 14 1021.3S
SISTER BAY LKSHO 1800   31        CALM       N/A
CHAMBERS ISLAND  1800   28     330/  4/  6 1021.7F
MENOMINEE LKSHOR 1800   26     320/  5     1022.0F
$$



USA.gov is the U.S. government's official web portal to all federal, state and local government web resources and services.